[[{"header":{"parameterUnit":"m.s-1","parameterCategory":1,"la1":30.2991,"la2":30.254,"lo1":-89.0895,"lo2":-89.0444,"dy":0.0017,"dx":0.0017,"nx":28,"ny":28,"refTime":"2024-07-12T03:00:00:Z","depth":0,"parameterNumber":2,"parameterNumberName":"U-component_of_WINDS"},"data":[0,0,0,0,0,0,0,0,0,0,0,0,0,0,0,0,0,0,0,0,0,0,0,0,0,0,0,0,0,0,0,0,0,0,0,0,0,0,0,0,0,0,0,0,0,0,0,0,0,0,0,0,0,0,0,0,0,0,2.5593,2.5594,0,2.5702,2.5703,2.5704,2.5707,2.5706,2.5705,2.5703,2.5815,2.5819,2.5823,0,0,0,0,0,0,0,0,0,0,0,0,0,2.5387,2.5391,2.5593,2.5594,2.5596,2.5702,2.5703,2.5705,2.5707,2.5706,2.5704,2.5703,2.5813,2.5818,2.5823,0,0,0,0,0,0,0,0,0,0,0,0,0,2.5484,2.5392,2.5593,2.561,2.5613,2.5701,2.5703,2.5705,2.5708,2.5706,2.5704,2.5702,2.5812,2.5818,2.5824,2.5903,0,0,2.5843,2.5846,0,0,0,0,0,0,0,0,2.5479,2.5492,2.5606,2.5609,2.5612,2.5689,2.5671,2.5771,2.5708,2.5672,2.5703,2.5701,2.5774,2.5784,2.5809,2.5908,2.5913,2.5844,2.5848,2.585,2.5852,0,0,0,0,0,0,0,2.5472,2.5487,2.5636,2.5608,2.5611,2.5612,2.5623,2.569,2.5733,2.5675,2.5675,2.5688,2.5776,2.5802,2.5811,2.5915,2.5844,2.5849,2.5853,2.5856,2.6083,2.6085,0,0,0,0,0,0,2.5462,2.5481,2.5633,2.5639,2.5539,2.5617,2.563,2.5666,2.5732,2.574,2.569,2.5688,2.5793,2.5804,2.5815,2.591,2.585,2.5856,2.586,2.6081,2.6083,2.6086,0,0,0,0,0,0,2.5457,2.5475,2.5628,2.5561,2.558,2.5623,2.5663,2.5669,2.5696,2.5743,2.5751,2.5709,2.5791,2.5806,2.5881,2.5914,2.5859,2.5865,2.6078,2.6081,2.6085,2.6102,0,0,0,0,0,0,2.5451,2.5474,2.5504,2.5561,2.5584,2.5692,2.5666,2.5673,2.5707,2.5706,2.5764,2.5771,2.5791,2.5871,2.5887,2.5922,2.587,2.6075,2.6079,2.6083,2.6098,2.6105,2.6111,0,0,0,0,0,2.5444,2.5505,2.5506,2.5524,2.5623,2.5694,2.5707,2.5728,2.571,2.574,2.5771,2.577,2.5908,2.5879,2.5897,2.5934,2.6073,2.6078,2.6083,2.6096,2.6104,2.6111,0,0,0,0,0,0,2.5451,2.5513,2.5514,2.5596,2.564,2.5695,2.5734,2.5737,2.5787,2.5783,2.5808,2.5821,2.5894,2.5922,2.5888,2.6013,2.5988,2.5997,2.5992,2.6,2.6007,2.5997,2.5875,0,0,0,0,0,2.5463,2.5515,2.5567,2.5634,2.5655,2.5691,2.5723,2.5735,2.5782,2.58,2.5836,2.5881,2.5935,2.5969,2.6021,2.6103,2.6115,2.6137,2.6144,2.6149,2.6156,2.6199,2.6209,2.6102,2.6102,2.6102,0,0,2.5486,2.5526,2.5558,2.5636,2.5671,2.5725,2.5707,2.5765,2.5804,2.5809,2.5881,2.5909,2.5961,2.6039,2.6075,2.6064,2.6188,2.6155,2.6159,2.6163,2.6205,2.6215,2.6224,2.6106,2.6105,2.6105,0,0,2.5555,2.5592,2.5651,2.5687,2.574,2.5764,2.5778,2.5832,2.5851,2.5923,2.5928,2.5975,2.6068,2.6104,2.6134,2.6217,2.6217,2.6233,2.6266,2.6308,2.6316,2.6324,2.6351,2.6361,2.624,2.624,2.624,0,2.5578,2.5659,2.5681,2.5738,2.5772,2.5779,2.5838,2.5872,2.594,2.5962,2.5949,2.6064,2.61,2.6185,2.6205,2.623,2.6246,2.6226,2.6313,2.6321,2.6328,2.6355,2.6365,2.6242,2.6241,2.6241,2.6241,0,2.5682,2.5738,2.5779,2.5844,2.5882,2.594,2.5971,2.6007,2.6016,2.6041,2.6114,2.6157,2.6217,2.6238,2.6249,2.6325,2.6316,2.6308,2.6284,2.634,2.6365,2.6375,2.6244,2.6243,2.6243,2.6242,0,0,2.5758,2.5834,2.5849,2.5877,2.5937,2.5981,2.6039,2.6097,2.6127,2.6174,2.6222,2.63,2.6292,2.6327,2.6341,2.6378,2.6438,2.6365,2.6367,2.6375,2.6523,2.6527,2.6538,2.6439,2.6441,2.6443,2.6518,0,2.5832,2.5935,2.5957,2.6046,2.6097,2.6104,2.6154,2.6196,2.6221,2.6267,2.6294,2.6348,2.6335,2.6356,2.6393,2.6423,2.6468,2.6418,2.6483,2.6485,2.6467,2.6552,2.6556,2.6625,2.6528,2.653,2.6531,0,2.5933,2.5981,2.6074,2.6126,2.6148,2.6193,2.6247,2.6293,2.634,2.6355,2.6393,2.6403,2.6463,2.6437,2.6519,2.6485,2.6513,2.6532,2.6535,2.654,2.651,2.6557,2.6647,2.6656,2.6547,2.6546,2.6544,0,2.5976,2.6065,2.6131,2.6156,2.6219,2.625,2.6277,2.6322,2.6356,2.6404,2.6425,2.648,2.6509,2.6551,2.6575,2.6554,2.6655,2.6631,2.6667,2.6667,2.6687,2.6685,2.678,2.6708,2.6708,2.6708,2.6708,0,2.6055,2.6111,2.6151,2.6192,2.6255,2.628,2.6342,2.6369,2.6409,2.6455,2.6466,2.6508,2.6539,2.6586,2.6605,2.6669,2.6683,2.6696,2.67,2.6694,2.6692,2.6711,2.6706,2.6711,2.671,2.671,2.6709,0,2.6113,2.6142,2.6215,2.6268,2.6283,2.6327,2.6372,2.6412,2.6436,2.6494,2.6509,2.6548,2.6604,2.6632,2.6702,2.6715,2.6786,2.6789,2.677,2.6771,2.6805,2.6801,2.6915,2.693,2.685,2.6851,2.6851,0,2.6161,2.6204,2.6261,2.6292,2.632,2.6371,2.6405,2.6431,2.6465,2.6522,2.6554,2.6611,2.6657,2.6745,2.6779,2.6833,2.6835,2.6871,2.6843,2.6835,2.6833,2.6829,2.6833,2.6876,2.6876,2.6877,2.6877,0,2.6241,2.6253,2.6301,2.6354,2.6394,2.6438,2.648,2.6505,2.6538,2.6576,2.6633,2.6669,2.6739,2.6795,2.685,2.6878,2.6883,2.6886,2.6897,2.689,2.6876,2.6882,2.6781,2.6883,2.6883,2.6882,2.6882,2.6882,2.6294,2.6332,2.6378,2.6431,2.6465,2.6505,2.6544,2.6573,2.6621,2.668,2.6693,2.6752,2.6798,2.6873,2.6903,2.6949,2.6942,2.6958,2.6961,2.6964,2.6965,2.6871,2.696,2.696,2.696,2.696,2.6959,0,2.6373,2.6402,2.6451,2.651,2.6551,2.6553,2.66,2.6634,2.6686,2.6728,2.6773,2.6838,2.6891,2.6929,2.6983,2.7013,2.7017,2.7027,2.7023,2.7029,2.697,2.6954,2.7023,2.7023,2.7023,2.7023,2.7023,2.7023,2.6418,2.6482,2.65,2.6581,2.661,2.6668,2.6695,2.6731,2.6764,2.6836,2.688,2.6904,2.6945,2.7002,2.705,2.706,2.7079,2.7088,2.7098,2.7041,2.7034,2.7027,2.7012,2.7093,2.7093,2.7153,2.7154,2.7154]},{"header":{"parameterUnit":"m.s-1","parameterCategory":1,"la1":30.2991,"la2":30.254,"lo1":-89.0895,"lo2":-89.0444,"dy":0.0017,"dx":0.0017,"nx":28,"ny":28,"refTime":"2024-07-12T03:00:00:Z","depth":0,"parameterNumber":3,"parameterNumberName":"V-component_of_WINDS"},"data":[0,0,0,0,0,0,0,0,0,0,0,0,0,0,0,0,0,0,0,0,0,0,0,0,0,0,0,0,0,0,0,0,0,0,0,0,0,0,0,0,0,0,0,0,0,0,0,0,0,0,0,0,0,0,0,0,0,0,1.2207,1.2208,0,1.2236,1.2236,1.2237,1.2211,1.221,1.2209,1.2208,1.2237,1.2238,1.224,0,0,0,0,0,0,0,0,0,0,0,0,0,1.2129,1.2131,1.2207,1.2208,1.2208,1.2236,1.2236,1.2237,1.2212,1.221,1.2209,1.2208,1.2236,1.2238,1.224,0,0,0,0,0,0,0,0,0,0,0,0,0,1.2161,1.2132,1.2207,1.2199,1.2199,1.2236,1.2236,1.2237,1.2212,1.221,1.2209,1.2207,1.2236,1.2238,1.2241,1.2287,0,0,1.2248,1.225,0,0,0,0,0,0,0,0,1.2159,1.2164,1.22,1.22,1.2199,1.2219,1.2219,1.2254,1.2212,1.2207,1.2208,1.2207,1.2232,1.2235,1.2243,1.2289,1.229,1.2249,1.225,1.2251,1.2252,0,0,0,0,0,0,0,1.2157,1.2163,1.2219,1.22,1.22,1.2193,1.2196,1.2226,1.2228,1.2207,1.2205,1.2209,1.2231,1.2241,1.2244,1.229,1.2249,1.2251,1.2252,1.2253,1.2374,1.2375,0,0,0,0,0,0,1.2156,1.2161,1.2218,1.222,1.2175,1.2196,1.2199,1.2214,1.2227,1.2228,1.221,1.2208,1.2237,1.2241,1.2245,1.23,1.2251,1.2254,1.2255,1.2372,1.2374,1.2376,0,0,0,0,0,0,1.2155,1.2161,1.2217,1.219,1.2196,1.2199,1.2216,1.2215,1.2225,1.223,1.223,1.222,1.2236,1.2241,1.2277,1.23,1.2255,1.2257,1.237,1.2373,1.2375,1.241,0,0,0,0,0,0,1.2152,1.2161,1.2179,1.219,1.2198,1.2249,1.2217,1.2217,1.2229,1.2226,1.2239,1.2239,1.2235,1.2273,1.2279,1.2303,1.2259,1.2368,1.2371,1.2374,1.2407,1.2414,1.242,0,0,0,0,0,1.215,1.2188,1.218,1.2187,1.2221,1.225,1.2254,1.225,1.2231,1.225,1.2252,1.2239,1.2297,1.2277,1.2284,1.2309,1.2367,1.237,1.2374,1.2404,1.2413,1.2419,0,0,0,0,0,0,1.218,1.219,1.2181,1.2224,1.2237,1.2246,1.2269,1.2258,1.2276,1.2272,1.2265,1.2268,1.2305,1.231,1.2288,1.2354,1.2329,1.2334,1.2349,1.2357,1.2363,1.2361,1.2261,0,0,0,0,0,1.2192,1.2215,1.2222,1.226,1.2266,1.2266,1.2279,1.2274,1.2286,1.2291,1.2297,1.2309,1.233,1.2344,1.2363,1.2407,1.2409,1.2428,1.2434,1.2439,1.2444,1.2467,1.2475,1.2388,1.2388,1.2388,0,0,1.2216,1.2224,1.224,1.2266,1.2275,1.2299,1.2271,1.2298,1.2315,1.2295,1.2329,1.2334,1.2346,1.2386,1.2404,1.2392,1.2468,1.2444,1.2448,1.245,1.2471,1.248,1.2487,1.2391,1.239,1.239,0,0,1.2273,1.2282,1.2314,1.2323,1.2337,1.2336,1.2344,1.2355,1.2357,1.2391,1.2376,1.2396,1.2432,1.2442,1.2451,1.251,1.2498,1.2516,1.2549,1.2571,1.2578,1.2584,1.2605,1.2612,1.2521,1.2521,1.2521,0,1.2302,1.2338,1.2331,1.2359,1.237,1.2353,1.2385,1.2394,1.2413,1.2422,1.2407,1.2451,1.2459,1.25,1.2515,1.2523,1.2531,1.2515,1.2578,1.2584,1.2589,1.2609,1.2616,1.2523,1.2523,1.2523,1.2523,0,1.2372,1.2397,1.2421,1.244,1.2454,1.2483,1.2481,1.2496,1.2489,1.249,1.2524,1.2532,1.2552,1.2562,1.2556,1.2602,1.2594,1.2579,1.2553,1.26,1.2618,1.2625,1.2526,1.2526,1.2525,1.2524,0,0,1.245,1.2464,1.2473,1.2481,1.2494,1.2513,1.2541,1.2561,1.2573,1.2587,1.261,1.264,1.2626,1.2637,1.2631,1.2651,1.2696,1.2633,1.2633,1.2644,1.2747,1.2759,1.2767,1.2688,1.2689,1.2691,1.2746,0,1.2507,1.2556,1.2551,1.2598,1.262,1.2603,1.2627,1.2638,1.2639,1.2658,1.2659,1.268,1.266,1.2666,1.2685,1.2687,1.2717,1.2683,1.2709,1.271,1.2706,1.2777,1.2789,1.2841,1.2753,1.2754,1.2755,0,1.2581,1.2596,1.2646,1.2654,1.2663,1.2685,1.2703,1.2721,1.2732,1.2731,1.2742,1.2733,1.276,1.2734,1.2771,1.2748,1.2758,1.2761,1.2762,1.2765,1.2736,1.2781,1.2858,1.2866,1.2766,1.2765,1.2765,0,1.2632,1.2666,1.2699,1.2706,1.2717,1.2733,1.2738,1.2748,1.276,1.2774,1.2782,1.28,1.2809,1.2823,1.2818,1.2799,1.2856,1.2829,1.2856,1.2856,1.2869,1.2868,1.2948,1.2875,1.2875,1.2875,1.2875,0,1.2697,1.2727,1.2722,1.2743,1.2776,1.2769,1.2802,1.2805,1.2813,1.2833,1.282,1.2839,1.2832,1.285,1.2847,1.2877,1.2882,1.2882,1.2881,1.2883,1.2883,1.289,1.2886,1.2877,1.2877,1.2876,1.2876,0,1.276,1.2758,1.2793,1.28,1.2803,1.2827,1.2833,1.2852,1.2851,1.2877,1.2883,1.2882,1.2903,1.29,1.2923,1.2921,1.2959,1.2953,1.2956,1.2954,1.2981,1.2978,1.3068,1.3079,1.2999,1.3,1.3001,0,1.2801,1.2824,1.2834,1.2847,1.2853,1.2874,1.2886,1.2879,1.2892,1.2905,1.2922,1.2942,1.2957,1.2991,1.2993,1.301,1.3005,1.3035,1.3007,1.3009,1.3005,1.3004,1.3005,1.304,1.3041,1.3042,1.3043,0,1.2875,1.2872,1.289,1.2908,1.2922,1.2936,1.2947,1.2958,1.2952,1.2967,1.2989,1.3001,1.3024,1.3044,1.306,1.3064,1.3053,1.3051,1.3058,1.3061,1.3062,1.3061,1.2971,1.3049,1.3049,1.3048,1.3048,1.3048,1.2928,1.2948,1.2957,1.2977,1.2985,1.2996,1.3014,1.3016,1.3034,1.3052,1.3047,1.3071,1.308,1.31,1.3106,1.3125,1.3113,1.3124,1.3126,1.3129,1.3132,1.3059,1.3128,1.3127,1.3127,1.3127,1.3127,0,1.3001,1.3006,1.3024,1.3041,1.3057,1.3044,1.3056,1.307,1.3091,1.3101,1.3116,1.314,1.3158,1.3161,1.3178,1.3192,1.3187,1.3197,1.3196,1.3197,1.3141,1.3133,1.3201,1.3201,1.3201,1.3201,1.3201,1.3201,1.3041,1.3072,1.3071,1.3106,1.3111,1.3134,1.3142,1.3152,1.3159,1.3187,1.3202,1.3203,1.321,1.3227,1.3243,1.3243,1.325,1.3262,1.326,1.3208,1.3201,1.3194,1.3186,1.3264,1.3264,1.3314,1.3315,1.3315]}]]